Vorticity
nan nan nan nan nan nan nan nan nan nan nan nan nan nan nan nan nan nan nan nan nan nan nan nan nan nan nan nan nan nan nan nan nan nan nan nan nan nan nan nan nan nan nan
nan 9 12 8 7 5 4 4 5 5 4 5 5 5 5 4 4 4 5 5 5 7 6 4 5 6 7 5 5 4 4 5 6 4 3 3 3 4 3 5 11 7 nan
nan 4 12 17 10 6 6 6 4 4 4 5 5 5 5 4 4 5 5 5 5 5 6 7 7 6 6 5 5 4 4 5 4 4 4 1 4 4 3 4 5 5 nan
nan 5 4 11 15 14 12 10 8 6 4 4 4 5 4 5 4 5 5 5 5 4 5 8 7 5 5 4 5 5 5 3 4 4 5 8 9 4 4 4 4 4 nan
nan 4 5 5 8 10 11 13 15 13 9 6 5 4 4 4 4 5 6 5 4 4 7 5 4 4 4 4 4 5 5 4 3 6 5 10 11 7 4 4 5 5 nan
nan 4 3 4 5 5 6 7 8 11 13 13 10 7 5 5 5 5 5 5 5 5 6 6 4 3 4 4 4 4 5 5 5 7 8 10 9 8 4 3 5 6 nan
nan 7 2 2 3 4 5 5 6 6 7 9 11 11 10 8 7 6 6 6 5 4 4 6 6 4 4 4 5 6 5 5 5 5 7 9 10 6 4 4 3 3 nan
nan 5 7 5 3 3 3 4 4 4 5 5 7 9 9 9 10 8 6 7 7 5 5 7 7 6 5 5 6 6 6 6 5 7 6 10 10 4 4 4 4 4 nan
nan 6 5 4 9 6 0 3 3 3 4 5 5 5 6 7 7 7 8 8 6 6 7 7 7 7 6 6 6 6 7 5 5 5 8 15 12 4 3 4 4 4 nan
nan 6 6 6 5 5 5 4 5 6 3 4 5 5 6 9 11 11 8 9 8 7 7 6 6 6 7 8 7 6 7 8 6 6 8 11 13 5 4 5 5 5 nan
nan 5 6 6 6 7 8 5 7 11 8 8 10 9 8 8 11 13 10 5 8 12 8 6 6 6 8 10 10 7 7 8 8 6 7 9 12 6 4 4 6 6 nan
nan 6 6 6 7 8 9 6 9 10 10 10 10 11 10 8 8 9 10 10 12 11 11 11 10 9 7 8 12 10 8 6 6 7 9 13 9 4 3 4 6 7 nan
nan 6 6 6 7 8 9 8 9 8 7 6 8 9 8 10 9 9 11 12 13 10 10 12 11 11 9 7 6 10 8 6 6 8 8 14 13 5 4 4 5 5 nan
nan 6 6 7 8 8 8 8 8 7 8 7 6 8 9 8 8 8 7 9 10 10 8 8 10 9 9 8 9 8 7 6 6 7 11 15 11 6 5 5 5 5 nan
nan 6 6 7 8 7 8 8 7 7 7 7 7 7 8 8 8 7 7 8 8 9 10 9 7 8 8 8 9 8 7 8 6 6 8 14 14 8 6 5 5 5 nan
nan 6 7 7 7 8 8 8 8 8 7 7 7 7 7 9 8 7 7 7 8 8 8 11 10 8 8 7 7 8 8 8 7 7 7 13 13 9 8 7 6 7 nan
nan 6 7 8 6 8 9 9 9 7 8 8 7 7 9 8 7 8 8 8 8 7 8 9 9 9 10 9 8 7 8 8 8 8 8 8 11 15 12 7 6 7 nan
nan 7 7 7 8 8 10 9 8 9 9 9 10 8 8 10 11 9 8 7 7 8 9 8 8 9 9 9 9 9 9 9 8 8 8 7 7 11 14 14 10 8 nan
nan 7 6 7 8 8 9 8 8 10 10 10 9 6 6 9 12 15 12 11 10 9 8 7 8 8 8 8 9 9 9 9 9 9 9 8 8 7 10 15 15 14 nan
nan 6 8 7 6 9 8 7 9 8 8 8 7 5 7 7 7 11 9 10 12 12 11 11 10 9 9 7 7 9 10 8 8 10 9 8 8 8 7 8 12 17 nan
nan 6 7 7 8 9 8 7 8 6 8 8 6 5 8 8 8 8 7 6 8 9 9 11 12 10 10 10 10 9 9 9 9 9 11 11 11 11 10 9 7 7 nan
nan 9 6 7 8 9 9 9 9 7 8 8 5 5 7 9 8 8 9 8 8 8 7 7 10 13 8 8 11 10 10 11 11 9 9 11 12 13 11 11 9 8 nan
nan 7 7 7 7 8 8 9 8 9 9 7 7 8 8 8 7 8 9 9 9 10 8 7 7 10 11 6 9 12 10 7 9 9 10 8 7 11 11 10 11 12 nan
nan 6 7 7 8 7 7 9 10 10 8 8 9 7 7 8 9 9 8 8 10 9 9 9 9 9 9 9 9 11 8 7 8 9 8 6 6 9 10 11 11 14 nan
nan 6 7 8 7 7 7 8 8 9 9 9 8 8 9 10 8 8 9 8 9 9 9 9 9 10 10 9 10 7 8 13 10 8 5 6 8 7 7 7 12 11 nan
nan nan nan nan nan nan nan nan nan nan nan nan nan nan nan nan nan nan nan nan nan nan nan nan nan nan nan nan nan nan nan nan nan nan nan nan nan nan nan nan nan nan nan
CAPE
0 37 662 1263 1448 1163 1147 986 510 682 1245 1213 1189 1148 1092 942 753 539 264 3 0 0 0 3 92 592 552 861 589 720 668 640 618 517 608 464 104 15 0 3 67 189 54
10 514 609 1281 1602 1607 1485 1179 897 1201 1145 1078 1028 944 823 619 434 322 166 0 0 0 0 4 49 378 478 200 260 611 419 397 468 385 242 274 119 0 0 0 60 42 170
215 428 1217 1589 1634 1592 1434 1474 1377 1414 1135 883 847 737 507 417 364 274 59 8 6 8 113 383 603 503 529 200 182 393 334 348 400 174 153 31 32 83 0 0 0 0 6
0 0 8 1341 1588 1259 1117 1190 1284 1392 1303 913 520 487 406 469 542 375 91 74 188 155 247 774 661 503 579 199 15 40 238 227 231 270 147 62 295 401 43 0 0 0 0
0 0 0 36 234 806 1277 1369 1356 1216 1235 1214 1019 630 549 602 698 644 243 135 516 876 840 800 699 487 367 239 0 0 88 220 136 31 0 14 252 447 21 0 0 0 0
0 0 0 0 0 0 1 80 613 1115 1247 1223 1159 1188 958 820 842 882 896 599 615 808 881 877 832 513 413 341 328 255 248 109 226 0 0 67 256 417 48 0 0 0 0
0 0 0 0 0 0 0 0 0 0 41 757 1233 1174 1103 1114 1116 1333 1391 1282 1118 1111 818 863 965 663 337 278 317 413 715 398 92 0 2 124 172 414 59 0 0 0 0
0 0 0 0 0 0 0 0 0 0 0 0 4 619 1140 1198 1117 1439 1268 1207 1306 1236 879 759 1121 977 635 196 121 424 750 170 1 0 10 72 461 249 29 1 0 0 0
0 0 0 0 0 0 0 0 0 0 0 0 0 0 13 141 644 1032 1268 1233 1329 1396 1542 1416 1390 1307 1117 643 399 326 481 280 0 0 0 3 497 378 144 17 0 0 0
0 0 0 0 0 0 0 0 0 0 0 0 0 0 0 0 0 671 883 970 1225 1331 1276 1315 1444 1340 1279 1062 731 311 76 265 0 0 0 0 694 556 225 87 40 23 3
0 0 0 0 0 0 0 0 0 0 0 0 0 0 0 0 0 266 502 484 476 1069 1141 1175 1197 1255 1025 777 579 335 52 11 20 0 0 0 921 581 347 64 32 56 55
0 0 0 0 0 0 0 0 0 0 0 0 0 0 0 0 0 0 0 0 132 424 779 990 989 726 731 539 301 174 42 0 0 0 0 0 880 606 370 201 384 626 582
0 0 0 0 0 0 0 0 0 0 0 0 0 0 0 0 0 0 0 13 298 342 242 500 516 513 436 240 163 118 103 14 0 0 0 0 1036 534 240 364 571 477 780
0 0 0 0 0 0 0 0 0 0 0 0 0 0 0 0 0 0 0 0 0 56 412 561 514 529 483 229 171 59 173 120 0 0 0 0 510 860 658 481 566 728 679
0 0 0 0 0 0 0 0 0 0 0 0 0 0 0 0 0 0 0 0 0 0 28 110 299 381 322 236 172 185 198 222 206 148 89 21 20 455 649 583 266 119 446
0 0 0 0 0 0 0 0 0 0 0 0 0 0 0 0 0 0 0 0 0 0 0 0 92 292 279 299 231 209 239 180 213 199 217 214 1 19 287 463 420 159 154
0 0 0 0 0 0 0 0 0 0 0 0 0 0 0 0 0 0 0 0 0 0 0 0 0 0 31 92 131 177 236 200 180 175 97 115 177 0 2 427 520 667 533
0 0 0 0 0 0 0 0 0 0 0 0 0 0 0 0 0 0 0 0 0 0 0 0 0 0 0 2 26 32 104 172 214 224 229 216 235 302 18 0 332 641 793
0 0 0 0 0 0 0 0 0 0 0 0 0 0 0 0 1 0 0 0 0 0 0 0 0 0 0 0 0 1 25 64 127 248 167 224 278 288 338 309 0 36 266
0 0 0 0 0 0 0 0 0 0 0 0 0 0 0 0 0 1 2 7 4 1 0 0 0 0 0 0 0 0 0 0 6 10 70 204 227 303 298 296 311 0 0
0 0 0 0 0 0 0 0 0 0 0 3 0 0 0 0 0 0 0 0 0 0 10 4 3 6 0 0 1 0 0 0 0 0 0 0 7 58 362 448 495 404 252
0 0 0 0 0 0 0 0 0 0 0 2 0 0 0 1 6 0 0 0 0 0 0 0 2 14 21 8 21 8 0 0 0 0 0 0 1 63 67 125 113 159 287
0 0 0 0 0 0 0 0 0 0 0 0 0 1 1 2 0 0 0 0 0 1 1 2 0 0 4 0 0 50 48 36 12 7 0 0 0 3 19 63 73 116 92
0 0 0 0 0 0 0 0 0 0 0 0 0 0 0 1 1 3 1 0 1 0 1 2 1 2 8 6 1 5 0 10 42 18 0 0 0 0 0 0 0 53 63
0 0 0 0 0 0 0 0 0 0 0 0 0 0 0 0 0 0 0 0 0 0 0 0 1 4 8 18 20 11 0 0 0 4 6 0 0 0 0 0 0 0 1
0 0 0 0 0 0 0 0 0 0 0 0 0 0 0 0 0 0 0 0 0 0 0 1 4 6 8 11 8 7 9 17 18 13 7 2 2 0 0 0 0 1 2